Regional Weather Roundup
Issued by NWS Upton, NY

Home | Current Version | Previous Version | Text Only | Print | Product List | Glossary On
Versions: 1 2 3 4 5 6 7 8 9 10 11 12 13 14 15 16 17 18 19 20 21 22 23 24 25 26 27 28 29 30 31 32 33 34 35 36 37 38 39 40 41 42 43 44 45 46 47 48 49 50
000
ASUS41 KOKX 251305
RWROKX

Regional Weather Roundup
National Weather Service New York NY
900 AM EDT WED APR 25 2018

Note: "FAIR" indicates few or no clouds below 12,000 feet with no
significant weather and/or obstructions to visibility.

NYZ071-072-176-178-NJZ106-104-251400-
New York City Metro Area

CITY           SKY/WX    TMP DP  RH WIND       PRES   REMARKS
Central Park   LGT RAIN  56  55  97 VRB3      29.93F FOG
Bronx Bot Gard   N/A     52  52 100 E12       29.91F
Bronx Lehman C   N/A     52  52 100 E8          N/A
LaGuardia Arpt LGT RAIN  57  54  89 SE15G26   29.89F
Queens College   N/A     55  54  94 SE14        N/A
Kennedy Intl   CLOUDY    55  55 100 E22G31    29.90F
Breezy Point     N/A     50 N/A N/A E15G21      N/A
Brooklyn Coll    N/A     54  52  94 E14G25      N/A
Staten Island    N/A     52  52 100 SE14        N/A
Newark/Liberty LGT RAIN  55  55 100 E14G22    29.89F
Teterboro      RAIN      56  54  93 E5        29.90F VSB 1
$$

NYZ177-179-078>081-251400-
Long Island New York

CITY           SKY/WX    TMP DP  RH WIND       PRES   REMARKS
Jones Beach      N/A     50 N/A N/A E15         N/A
Wantagh          N/A     54  52  94 E17G29      N/A
Hempstead        N/A     55  54  94 E13       29.93F
Matinecock Pt    N/A     48 N/A N/A NE17        N/A
Farmingdale    CLOUDY    55  53  93 SE16G24   29.92F
MacArthur/ISP  LGT RAIN  55  55 100 E16       29.93F VSB 1
Stony Brook      N/A     55  54  94 SE10        N/A
Shirley        LGT RAIN  54  54 100 E6        29.96F FOG
Mt Sinai Harb    N/A    N/A N/A N/A SE9         N/A
Westhampton    LGT RAIN  51  49  92 E8        29.98F FOG
East Hampton   CLOUDY    49  49  98 SE12G18   29.99F FOG
Southold         N/A     52  52 100 SE8         N/A
Montauk          N/A     52  51  97 SE12G21   30.02F
$$

NYZ052-065-067-251400-
Hudson Valley

CITY           SKY/WX    TMP DP  RH WIND       PRES   REMARKS
White Plains   LGT RAIN  53  52  96 E10G18    29.92F VSB 3/4
Larchmont Harb   N/A     46 N/A N/A NE18        N/A
Croton On Huds   N/A     55 N/A N/A NE1G8       N/A
Somers           N/A     54  52  94 E9          N/A
Brewster         N/A     54  52  94 E7          N/A
Newburgh       LGT RAIN  52  52 100 E7        29.95F FOG
Montgomery     LGT RAIN  50  48  93 NE13      29.92F FOG
Otisville        N/A     48  48 100 NE7         N/A
Warwick          N/A     55  55 100 E8          N/A
Suffern          N/A     54  54 100 E2          N/A
Poughkeepsie   LGT RAIN  52  50  93 NE7       29.94F FOG
Albany         RAIN      50  47  89 NE6       30.00F FOG
$$

NJZ001-105-106-008-010-013-015-019>022-104-251400-
New Jersey

CITY           SKY/WX    TMP DP  RH WIND       PRES   REMARKS
Newark/Liberty LGT RAIN  55  55 100 E14G22    29.89F
Teterboro      RAIN      56  54  93 E5        29.90F VSB 1
Caldwell       LGT RAIN  54  54 100 E8        29.91F VSB 1
Somerville     LGT RAIN  54  54 100 VRB6      29.86F FOG
Linden         CLOUDY    53  51  95 SE9G16    29.90F FOG
Perth Amboy      N/A     54 N/A N/A E13         N/A
Sussex         CLOUDY    51  50  96 N8        29.91F FOG
Andover          N/A     55  53  93 CALM      29.89F
Trenton        CLOUDY    56  55  97 E10       29.85F
Millville      CLOUDY    59  58  96 E12       29.80F FOG
Atlantic City  CLOUDY    58  58 100 SE18G26   29.81F FOG
Wrightstown    LGT RAIN  55  55 100 E8        29.83F
Toms River     LGT RAIN  55  55 100 SE12G22   29.85F
Belmar         LGT RAIN  52  51  97 E13G20    29.87F VSB 1
$$

PAZ047>061-062-071-251400-
Eastern Pennsylvania

CITY           SKY/WX    TMP DP  RH WIND       PRES   REMARKS
Philadelphia   CLOUDY    57  56  96 E8        29.83F
Allentown      CLOUDY    56  53  90 E12       29.85F FOG
Scranton       HVY RAIN  52  50  93 VRB3      29.86F FOG
$$

CTZ002-004>006-009-010-012-RIZ004-006-007-MAZ004-011-015-251400-
Southern New England

 In CT

CITY           SKY/WX    TMP DP  RH WIND       PRES   REMARKS
Bradley Intl   LGT RAIN  49  49 100 N6        30.02F FOG
Hartford       LGT RAIN  52  51  97 N5        30.01F FOG
Danbury        LGT RAIN  54  53  97 E8        29.96F FOG
Wtrbury/Oxford LGT RAIN  51  51 100 E7        29.98F VSB 1
Norwalk Harbor   N/A     48 N/A N/A NE21        N/A
Bridgeport     LGT RAIN  49  48  97 E15       29.97F FOG
Meriden        LGT RAIN  53  52  96 VRB3      29.99F FOG
New Haven      CLOUDY    52  50  93 E10       29.98F FOG
Chester        DRZL/FOG  52  52 100 SE9G15    30.00F VSB 1/2
Groton         LGT RAIN  50  50 100 E18G24    30.01F FOG
Willimantic    LGT RAIN  54  52  93 VRB5      30.03F FOG

 In RI

CITY           SKY/WX    TMP DP  RH WIND       PRES   REMARKS
Providence     LGT RAIN  53  53 100 S9        30.07F FOG
Block Island   CLOUDY    50  50 100 SE17      30.04F
Westerly       LGT RAIN  51  51 100 E13G20    30.04F FOG

In MA

CITY           SKY/WX    TMP DP  RH WIND       PRES   REMARKS
Boston         LGT RAIN  48  46  93 E8        30.11F
Worcester      LGT RAIN  45  45 100 E7        30.06F VSB 1/4
Westfield      LGT RAIN  48  48 100 NE6       30.02F FOG
Provincetown   LGT RAIN  53  49  86 SE14      30.13F
Nantucket      LGT RAIN  50  50 100 SE17      30.11F
$$

ANZ330-335-338-340-345-350-353-355-251400-
Coastal Marine Observations


STATION/POSITION TIME  SKY/WX   TEMP    WIND        PRES    VSBY  WAVE
                                AIR SEA DIR/SP/G                  HT/PER
                 (UTC)          (F)     (DEG/KT/KT) (MB)    (MI)  (FT/S)
NY Harb Entrance 1250            51 47  110/ 19/ 23 1011.8          7/10
20 S Fire Island 1250            50 44  110/ 19/ 23 1012.1          7/ 9
23 SSW Montauk P 1250            47 44  120/ 14/ 16 1015.7          5/ 7
15 E Barnegat Li 1230               46                N/A           8/11
Hudson Canyon    1250            53 44  120/ 16/ 19 1012.4         10/10
Kings Point      1248                   170/  7/ 13 1013.6
Execution Rocks  NOT AVBL
Western LI Sound NOT AVBL
Central LI Sound 1230            48     120/ 10/ 14   N/A           1
Robbins Reef     1248            55     120/ 23/ 29 1012.6
$$


>>>>>>>>>>>>>>>>>>>>>>>>>>>> KEY <<<<<<<<<<<<<<<<<<<<<<<<<<<
>                                                          <
>     SKY/WX - Sky Condition/Present Weather               <
>     TMP    - Temperature in Fahrenheit                   <
>     DP     - Dew Point in Fahrenheit                     <
>     RH     - Relative Humidity in Percent                <
>     WIND   - Direction (from) and Speed in MPH           <
>     PRES   - Mean Sea Level Pressure (inches of Hg)      <
>     WCI    - Wind Chill Index                            <
>     VSB    - Visibility in Miles                         <
>     HX     - Heat Index                                  <
>     TC     - Temperature in Celsius                      <
>     VRB    - Varibale Wind Direction                     <
>                                                          <
>>>>>>>>>>>>>>>>>>>>>>>>>>>> KEY <<<<<<<<<<<<<<<<<<<<<<<<<<<



USA.gov is the U.S. government's official web portal to all federal, state and local government web resources and services.